Year,Month,Day,Hour,Minute,Value (Times are PST for temperature in C)
2019,05,23,00,00,16.80
2019,05,23,00,01,16.70
2019,05,23,00,02,16.60
2019,05,23,00,03,16.50
2019,05,23,00,04,16.40
2019,05,23,00,05,16.40
2019,05,23,00,06,16.30
2019,05,23,00,07,16.20
2019,05,23,00,08,16.20
2019,05,23,00,09,16.10
2019,05,23,00,10,16.00
2019,05,23,00,11,16.00
2019,05,23,00,12,15.90
2019,05,23,00,13,15.80
2019,05,23,00,14,15.60
2019,05,23,00,15,15.50
2019,05,23,00,16,15.50
2019,05,23,00,17,15.40
2019,05,23,00,18,15.30
2019,05,23,00,19,15.30
2019,05,23,00,20,15.30
2019,05,23,00,21,15.20
2019,05,23,00,22,15.20
2019,05,23,00,23,15.10
2019,05,23,00,24,15.10
2019,05,23,00,25,15.10
2019,05,23,00,26,15.00
2019,05,23,00,27,15.00
2019,05,23,00,28,15.00
2019,05,23,00,29,15.00
2019,05,23,00,30,14.90
2019,05,23,00,31,14.90
2019,05,23,00,32,14.90
2019,05,23,00,33,14.90
2019,05,23,00,34,14.90
2019,05,23,00,35,14.90
2019,05,23,00,36,14.90
2019,05,23,00,37,14.90
2019,05,23,00,38,15.00
2019,05,23,00,39,15.00
2019,05,23,00,40,15.10
2019,05,23,00,41,15.10
2019,05,23,00,42,15.20
2019,05,23,00,43,15.20
2019,05,23,00,44,15.20
2019,05,23,00,45,15.30
2019,05,23,00,46,15.30
2019,05,23,00,47,15.40
2019,05,23,00,48,15.40
2019,05,23,00,49,15.40
2019,05,23,00,50,15.40
2019,05,23,00,51,15.40
2019,05,23,00,52,15.30
2019,05,23,00,53,15.30
2019,05,23,00,54,15.30
2019,05,23,00,55,15.30
2019,05,23,00,56,15.30
2019,05,23,00,57,15.20
2019,05,23,00,58,15.20
2019,05,23,00,59,15.10
2019,05,23,01,00,15.10
2019,05,23,01,01,15.10
2019,05,23,01,02,15.00
2019,05,23,01,03,15.00
2019,05,23,01,04,14.90
2019,05,23,01,05,14.90
2019,05,23,01,06,14.90
2019,05,23,01,07,14.80
2019,05,23,01,08,14.80
2019,05,23,01,09,14.70
2019,05,23,01,10,14.70
2019,05,23,01,11,14.60
2019,05,23,01,12,14.60
2019,05,23,01,13,14.60
2019,05,23,01,14,14.60
2019,05,23,01,15,14.60
2019,05,23,01,16,14.50
2019,05,23,01,17,14.50
2019,05,23,01,18,14.40
2019,05,23,01,19,14.40
2019,05,23,01,20,14.40
2019,05,23,01,21,14.30
2019,05,23,01,22,14.30
2019,05,23,01,23,14.30
2019,05,23,01,24,14.20
2019,05,23,01,25,14.20
2019,05,23,01,26,14.10
2019,05,23,01,27,14.10
2019,05,23,01,28,14.00
2019,05,23,01,29,14.00
2019,05,23,01,30,14.00
2019,05,23,01,31,13.90
2019,05,23,01,32,13.90
2019,05,23,01,33,13.90
2019,05,23,01,34,13.90
2019,05,23,01,35,13.80
2019,05,23,01,36,13.80
2019,05,23,01,37,13.80
2019,05,23,01,38,13.70
2019,05,23,01,39,13.70
2019,05,23,01,40,13.60
2019,05,23,01,41,13.60
2019,05,23,01,42,13.60
2019,05,23,01,43,13.60
2019,05,23,01,44,13.60
2019,05,23,01,45,13.60
2019,05,23,01,46,13.60
2019,05,23,01,47,13.60
2019,05,23,01,48,13.60
2019,05,23,01,49,13.60
2019,05,23,01,50,13.60
2019,05,23,01,51,13.60
2019,05,23,01,52,13.60
2019,05,23,01,53,13.60
2019,05,23,01,54,13.60
2019,05,23,01,55,13.60
2019,05,23,01,56,13.60
2019,05,23,01,57,13.60
2019,05,23,01,58,13.60
2019,05,23,01,59,13.50
2019,05,23,02,00,13.50
2019,05,23,02,01,13.50
2019,05,23,02,02,13.50
2019,05,23,02,03,13.50
2019,05,23,02,04,13.40
2019,05,23,02,05,13.40
2019,05,23,02,06,13.40
2019,05,23,02,07,13.30
2019,05,23,02,08,13.30
2019,05,23,02,09,13.30
2019,05,23,02,10,13.30
2019,05,23,02,11,13.30
2019,05,23,02,12,13.30
2019,05,23,02,13,13.30
2019,05,23,02,14,13.30
2019,05,23,02,15,13.30
2019,05,23,02,16,13.30
2019,05,23,02,17,13.30
2019,05,23,02,18,13.30
2019,05,23,02,19,13.30
2019,05,23,02,20,13.30
2019,05,23,02,21,13.40
2019,05,23,02,22,13.40
2019,05,23,02,23,13.50
2019,05,23,02,24,13.60
2019,05,23,02,25,13.60
2019,05,23,02,26,13.60
2019,05,23,02,27,13.60
2019,05,23,02,28,13.70
2019,05,23,02,29,13.70
2019,05,23,02,30,13.70
2019,05,23,02,31,13.70
2019,05,23,02,32,13.70
2019,05,23,02,33,13.80
2019,05,23,02,34,13.80
2019,05,23,02,35,13.80
2019,05,23,02,36,13.90
2019,05,23,02,37,13.90
2019,05,23,02,38,13.90
2019,05,23,02,39,14.00
2019,05,23,02,40,14.00
2019,05,23,02,41,14.10
2019,05,23,02,42,14.10
2019,05,23,02,43,14.10
2019,05,23,02,44,14.00
2019,05,23,02,45,14.00
2019,05,23,02,46,14.00
2019,05,23,02,47,13.90
2019,05,23,02,48,13.90
2019,05,23,02,49,13.90
2019,05,23,02,50,13.90
2019,05,23,02,51,13.80
2019,05,23,02,52,13.80
2019,05,23,02,53,13.90
2019,05,23,02,54,13.90
2019,05,23,02,55,13.90
2019,05,23,02,56,13.90
2019,05,23,02,57,13.90
2019,05,23,02,58,13.80
2019,05,23,02,59,13.80
2019,05,23,03,00,13.80
2019,05,23,03,01,13.80
2019,05,23,03,02,13.80
2019,05,23,03,03,13.70
2019,05,23,03,04,13.70
2019,05,23,03,05,13.70
2019,05,23,03,06,13.70
2019,05,23,03,07,13.70
2019,05,23,03,08,13.70
2019,05,23,03,09,13.70
2019,05,23,03,10,13.70
2019,05,23,03,11,13.60
2019,05,23,03,12,13.60
2019,05,23,03,13,13.60
2019,05,23,03,14,13.60
2019,05,23,03,15,13.60
2019,05,23,03,16,13.60
2019,05,23,03,17,13.60
2019,05,23,03,18,13.60
2019,05,23,03,19,13.50
2019,05,23,03,20,13.50
2019,05,23,03,21,13.50
2019,05,23,03,22,13.40
2019,05,23,03,23,13.40
2019,05,23,03,24,13.40
2019,05,23,03,25,13.40
2019,05,23,03,26,13.50
2019,05,23,03,27,13.50
2019,05,23,03,28,13.50
2019,05,23,03,29,13.50
2019,05,23,03,30,13.60
2019,05,23,03,31,13.60
2019,05,23,03,32,13.60
2019,05,23,03,33,13.60
2019,05,23,03,34,13.70
2019,05,23,03,35,13.70
2019,05,23,03,36,13.70
2019,05,23,03,37,13.70
2019,05,23,03,38,13.70
2019,05,23,03,39,13.70
2019,05,23,03,40,13.70
2019,05,23,03,41,13.70
2019,05,23,03,42,13.70
2019,05,23,03,43,13.70
2019,05,23,03,44,13.60
2019,05,23,03,45,13.60
2019,05,23,03,46,13.60
2019,05,23,03,47,13.60
2019,05,23,03,48,13.70
2019,05,23,03,49,13.70
2019,05,23,03,50,13.70
2019,05,23,03,51,13.70
2019,05,23,03,52,13.70
2019,05,23,03,53,13.80
2019,05,23,03,54,13.80
2019,05,23,03,55,13.80
2019,05,23,03,56,13.80
2019,05,23,03,57,13.80
2019,05,23,03,58,13.80
2019,05,23,03,59,13.80
2019,05,23,04,00,13.90
2019,05,23,04,01,13.90
2019,05,23,04,02,14.00
2019,05,23,04,03,14.00
2019,05,23,04,04,14.10
2019,05,23,04,05,14.10
2019,05,23,04,06,14.20
2019,05,23,04,07,14.20
2019,05,23,04,08,14.30
2019,05,23,04,09,14.30
2019,05,23,04,10,14.40
2019,05,23,04,11,14.40
2019,05,23,04,12,14.40
2019,05,23,04,13,14.40
2019,05,23,04,14,14.40
2019,05,23,04,15,14.50
2019,05,23,04,16,14.50
2019,05,23,04,17,14.50
2019,05,23,04,18,14.50
2019,05,23,04,19,14.60
2019,05,23,04,20,14.60
2019,05,23,04,21,14.60
2019,05,23,04,22,14.60
2019,05,23,04,23,14.50
2019,05,23,04,24,14.50
2019,05,23,04,25,14.50
2019,05,23,04,26,14.50
2019,05,23,04,27,14.50
2019,05,23,04,28,14.50
2019,05,23,04,29,14.50
2019,05,23,04,30,14.50
2019,05,23,04,31,14.60
2019,05,23,04,32,14.50
2019,05,23,04,33,14.50
2019,05,23,04,34,14.50
2019,05,23,04,35,14.50
2019,05,23,04,36,14.50
2019,05,23,04,37,14.50
2019,05,23,04,38,14.50
2019,05,23,04,39,14.40
2019,05,23,04,40,14.40
2019,05,23,04,41,14.40
2019,05,23,04,42,14.40
2019,05,23,04,43,14.40
2019,05,23,04,44,14.40
2019,05,23,04,45,14.40
2019,05,23,04,46,14.40
2019,05,23,04,47,14.40
2019,05,23,04,48,14.40
2019,05,23,04,49,14.30
2019,05,23,04,50,14.30
2019,05,23,04,51,14.30
2019,05,23,04,52,14.30
2019,05,23,04,53,14.30
2019,05,23,04,54,14.30
2019,05,23,04,55,14.30
2019,05,23,04,56,14.20
2019,05,23,04,57,14.20
2019,05,23,04,58,14.20
2019,05,23,04,59,14.20
2019,05,23,05,00,14.20
2019,05,23,05,01,14.20
2019,05,23,05,02,14.10
2019,05,23,05,03,14.10
2019,05,23,05,04,14.10
2019,05,23,05,05,14.10
2019,05,23,05,06,14.10
2019,05,23,05,07,14.10
2019,05,23,05,08,14.00
2019,05,23,05,09,14.00
2019,05,23,05,10,14.00
2019,05,23,05,11,13.90
2019,05,23,05,12,13.90
2019,05,23,05,13,13.90
2019,05,23,05,14,13.90
2019,05,23,05,15,13.90
2019,05,23,05,16,13.80
2019,05,23,05,17,13.80
2019,05,23,05,18,13.80
2019,05,23,05,19,13.80
2019,05,23,05,20,13.80
2019,05,23,05,21,13.80
2019,05,23,05,22,13.70
2019,05,23,05,23,13.70
2019,05,23,05,24,13.70
2019,05,23,05,25,13.70
2019,05,23,05,26,13.70
2019,05,23,05,27,13.70
2019,05,23,05,28,13.60
2019,05,23,05,29,13.60
2019,05,23,05,30,13.60
2019,05,23,05,31,13.60
2019,05,23,05,32,13.50
2019,05,23,05,33,13.50
2019,05,23,05,34,13.50
2019,05,23,05,35,13.50
2019,05,23,05,36,13.40
2019,05,23,05,37,13.40
2019,05,23,05,38,13.40
2019,05,23,05,39,13.40
2019,05,23,05,40,13.40
2019,05,23,05,41,13.40
2019,05,23,05,42,13.40
2019,05,23,05,43,13.40
2019,05,23,05,44,13.40
2019,05,23,05,45,13.40
2019,05,23,05,46,13.40
2019,05,23,05,47,13.40
2019,05,23,05,48,13.40
2019,05,23,05,49,13.30
2019,05,23,05,50,13.30
2019,05,23,05,51,13.30
2019,05,23,05,52,13.30
2019,05,23,05,53,13.30
2019,05,23,05,54,13.30
2019,05,23,05,55,13.30
2019,05,23,05,56,13.30
2019,05,23,05,57,13.30
2019,05,23,05,58,13.30
2019,05,23,05,59,13.30
2019,05,23,06,00,13.30
2019,05,23,06,01,13.40
2019,05,23,06,02,13.40
2019,05,23,06,03,13.40
2019,05,23,06,04,13.40
2019,05,23,06,05,13.40
2019,05,23,06,06,13.40
2019,05,23,06,07,13.50
2019,05,23,06,08,13.50
2019,05,23,06,09,13.50
2019,05,23,06,10,13.50
2019,05,23,06,11,13.60
2019,05,23,06,12,13.60
2019,05,23,06,13,13.60
2019,05,23,06,14,13.60
2019,05,23,06,15,13.60
2019,05,23,06,16,13.60
2019,05,23,06,17,13.70
2019,05,23,06,18,13.70
2019,05,23,06,19,13.70
2019,05,23,06,20,13.70
2019,05,23,06,21,13.70
2019,05,23,06,22,13.80
2019,05,23,06,23,13.80
2019,05,23,06,24,13.80
2019,05,23,06,25,13.80
2019,05,23,06,26,13.80
2019,05,23,06,27,13.90
2019,05,23,06,28,13.90
2019,05,23,06,29,13.90
2019,05,23,06,30,13.90
2019,05,23,06,31,14.00
2019,05,23,06,32,14.00
2019,05,23,06,33,14.00
2019,05,23,06,34,14.00
2019,05,23,06,35,14.10
2019,05,23,06,36,14.10
2019,05,23,06,37,14.10
2019,05,23,06,38,14.10
2019,05,23,06,39,14.20
2019,05,23,06,40,14.20
2019,05,23,06,41,14.20
2019,05,23,06,42,14.20
2019,05,23,06,43,14.20
2019,05,23,06,44,14.20
2019,05,23,06,45,14.20
2019,05,23,06,46,14.30
2019,05,23,06,47,14.30
2019,05,23,06,48,14.30
2019,05,23,06,49,14.30
2019,05,23,06,50,14.30
2019,05,23,06,51,14.30
2019,05,23,06,52,14.30
2019,05,23,06,53,14.30
2019,05,23,06,54,14.30
2019,05,23,06,55,14.30
2019,05,23,06,56,14.30
2019,05,23,06,57,14.30
2019,05,23,06,58,14.30
2019,05,23,06,59,14.40
2019,05,23,07,00,14.40
2019,05,23,07,01,14.40
2019,05,23,07,02,14.40
2019,05,23,07,03,14.40
2019,05,23,07,04,14.40
2019,05,23,07,05,14.40
2019,05,23,07,06,14.50
2019,05,23,07,07,14.50
2019,05,23,07,08,14.50
2019,05,23,07,09,14.50
2019,05,23,07,10,14.50
2019,05,23,07,11,14.50
2019,05,23,07,12,14.60
2019,05,23,07,13,14.60
2019,05,23,07,14,14.60
2019,05,23,07,15,14.60
2019,05,23,07,16,14.60
2019,05,23,07,17,14.60
2019,05,23,07,18,14.60
2019,05,23,07,19,14.60
2019,05,23,07,20,14.60
2019,05,23,07,21,14.70
2019,05,23,07,22,14.70
2019,05,23,07,23,14.70
2019,05,23,07,24,14.70
2019,05,23,07,25,14.80
2019,05,23,07,26,14.80
2019,05,23,07,27,14.80
2019,05,23,07,28,14.80
2019,05,23,07,29,14.80
2019,05,23,07,30,14.90
2019,05,23,07,31,14.90
2019,05,23,07,32,14.90
2019,05,23,07,33,14.90
2019,05,23,07,34,14.90
2019,05,23,07,35,14.90
2019,05,23,07,36,15.00
2019,05,23,07,37,15.10
2019,05,23,07,38,15.10
2019,05,23,07,39,15.10
2019,05,23,07,40,15.20
2019,05,23,07,41,15.20
2019,05,23,07,42,15.20
2019,05,23,07,43,15.20
2019,05,23,07,44,15.20
2019,05,23,07,45,15.20
2019,05,23,07,46,15.20
2019,05,23,07,47,15.20
2019,05,23,07,48,15.20
2019,05,23,07,49,15.20
2019,05,23,07,50,15.20
2019,05,23,07,51,15.20
2019,05,23,07,52,15.30
2019,05,23,07,53,15.30
2019,05,23,07,54,15.30
2019,05,23,07,55,15.40
2019,05,23,07,56,15.40
2019,05,23,07,57,15.40
2019,05,23,07,58,15.50
2019,05,23,07,59,15.50
2019,05,23,08,00,15.50
2019,05,23,08,01,15.50
2019,05,23,08,02,15.50
2019,05,23,08,03,15.50
2019,05,23,08,04,15.50
2019,05,23,08,05,15.50
2019,05,23,08,06,15.50
2019,05,23,08,07,15.50
2019,05,23,08,08,15.60
2019,05,23,08,09,15.60
2019,05,23,08,10,15.60
2019,05,23,08,11,15.70
2019,05,23,08,12,15.70
2019,05,23,08,13,15.70
2019,05,23,08,14,15.70
2019,05,23,08,15,15.60
2019,05,23,08,16,15.60
2019,05,23,08,17,15.60
2019,05,23,08,18,15.60
2019,05,23,08,19,15.60
2019,05,23,08,20,15.70
2019,05,23,08,21,15.70
2019,05,23,08,22,15.70
2019,05,23,08,23,15.80
2019,05,23,08,24,15.80
2019,05,23,08,25,15.80
2019,05,23,08,26,15.90
2019,05,23,08,27,15.90
2019,05,23,08,28,15.80
2019,05,23,08,29,15.80
2019,05,23,08,30,15.70
2019,05,23,08,31,15.70
2019,05,23,08,32,15.70
2019,05,23,08,33,15.60
2019,05,23,08,34,15.60
2019,05,23,08,35,15.60
2019,05,23,08,36,15.50
2019,05,23,08,37,15.50
2019,05,23,08,38,15.50
2019,05,23,08,39,15.50
2019,05,23,08,40,15.60
2019,05,23,08,41,15.60
2019,05,23,08,42,15.60
2019,05,23,08,43,15.60
2019,05,23,08,44,15.70
2019,05,23,08,45,15.70
2019,05,23,08,46,15.70
2019,05,23,08,47,15.70
2019,05,23,08,48,15.70
2019,05,23,08,49,15.70
2019,05,23,08,50,15.70
2019,05,23,08,51,15.70
2019,05,23,08,52,15.70
2019,05,23,08,53,15.70
2019,05,23,08,54,15.70
2019,05,23,08,55,15.70
2019,05,23,08,56,15.70
2019,05,23,08,57,15.70
2019,05,23,08,58,15.70
2019,05,23,08,59,15.70
2019,05,23,09,00,15.80
2019,05,23,09,01,15.80
2019,05,23,09,02,15.90
2019,05,23,09,03,16.00
2019,05,23,09,04,16.10
2019,05,23,09,05,16.10
2019,05,23,09,06,16.20
2019,05,23,09,07,16.20
2019,05,23,09,08,16.20
2019,05,23,09,09,16.30
2019,05,23,09,10,16.30
2019,05,23,09,11,16.30
2019,05,23,09,12,16.30
2019,05,23,09,13,16.40
2019,05,23,09,14,16.40
2019,05,23,09,15,16.40
2019,05,23,09,16,16.50
2019,05,23,09,17,16.60
2019,05,23,09,18,16.60
2019,05,23,09,19,16.70
2019,05,23,09,20,16.60
2019,05,23,09,21,16.60
2019,05,23,09,22,16.50
2019,05,23,09,23,16.50
2019,05,23,09,24,16.50
2019,05,23,09,25,16.50
2019,05,23,09,26,16.60
2019,05,23,09,27,16.60
2019,05,23,09,28,16.60
2019,05,23,09,29,16.60
2019,05,23,09,30,16.70
2019,05,23,09,31,16.70
2019,05,23,09,32,16.70
2019,05,23,09,33,16.70
2019,05,23,09,34,16.80
2019,05,23,09,35,16.90
2019,05,23,09,36,17.00
2019,05,23,09,37,17.00
2019,05,23,09,38,17.00
2019,05,23,09,39,17.00
2019,05,23,09,40,17.00
2019,05,23,09,41,17.00
2019,05,23,09,42,17.10
2019,05,23,09,43,17.20
2019,05,23,09,44,17.20
2019,05,23,09,45,17.30
2019,05,23,09,46,17.30
2019,05,23,09,47,17.30
2019,05,23,09,48,17.30
2019,05,23,09,49,17.30
2019,05,23,09,50,17.40
2019,05,23,09,51,17.40
2019,05,23,09,52,17.40
2019,05,23,09,53,17.40
2019,05,23,09,54,17.40
2019,05,23,09,55,17.50
2019,05,23,09,56,17.60
2019,05,23,09,57,17.60
2019,05,23,09,58,17.50
2019,05,23,09,59,17.50
2019,05,23,10,00,17.50
2019,05,23,10,01,17.50
2019,05,23,10,02,17.50
2019,05,23,10,03,17.50
2019,05,23,10,04,17.50
2019,05,23,10,05,17.50
2019,05,23,10,06,17.50
2019,05,23,10,07,17.50
2019,05,23,10,08,17.50
2019,05,23,10,09,17.60
2019,05,23,10,10,17.60
2019,05,23,10,11,17.60
2019,05,23,10,12,17.60
2019,05,23,10,13,17.50
2019,05,23,10,14,17.40
2019,05,23,10,15,17.40
2019,05,23,10,16,17.40
2019,05,23,10,17,17.40
2019,05,23,10,18,17.40
2019,05,23,10,19,17.40
2019,05,23,10,20,17.40
2019,05,23,10,21,17.50
2019,05,23,10,22,17.60
2019,05,23,10,23,17.60
2019,05,23,10,24,17.70
2019,05,23,10,25,17.70
2019,05,23,10,26,17.80
2019,05,23,10,27,17.80
2019,05,23,10,28,17.80
2019,05,23,10,29,17.80
2019,05,23,10,30,17.80
2019,05,23,10,31,17.90
2019,05,23,10,32,17.90
2019,05,23,10,33,18.00
2019,05,23,10,34,18.00
2019,05,23,10,35,18.10
2019,05,23,10,36,18.10
2019,05,23,10,37,18.20
2019,05,23,10,38,18.20
2019,05,23,10,39,18.30
2019,05,23,10,40,18.40
2019,05,23,10,41,18.50
2019,05,23,10,42,18.60
2019,05,23,10,43,18.70
2019,05,23,10,44,18.80
2019,05,23,10,45,18.90
2019,05,23,10,46,19.00
2019,05,23,10,47,19.10
2019,05,23,10,48,19.20
2019,05,23,10,49,19.30
2019,05,23,10,50,19.50
2019,05,23,10,51,19.50
2019,05,23,10,52,19.40
2019,05,23,10,53,19.50
2019,05,23,10,54,19.40
2019,05,23,10,55,19.30
2019,05,23,10,56,19.10
2019,05,23,10,57,19.00
2019,05,23,10,58,18.80
2019,05,23,10,59,18.70
2019,05,23,11,00,18.50
2019,05,23,11,01,18.40
2019,05,23,11,02,18.30
2019,05,23,11,03,18.20
2019,05,23,11,04,18.10
2019,05,23,11,05,18.10
2019,05,23,11,06,18.10
2019,05,23,11,07,18.20
2019,05,23,11,08,18.20
2019,05,23,11,09,18.20
2019,05,23,11,10,18.20
2019,05,23,11,11,18.20
2019,05,23,11,12,18.10
2019,05,23,11,13,18.00
2019,05,23,11,14,17.90
2019,05,23,11,15,17.80
2019,05,23,11,16,17.70
2019,05,23,11,17,17.60
2019,05,23,11,18,17.60
2019,05,23,11,19,17.60
2019,05,23,11,20,17.60
2019,05,23,11,21,17.60
2019,05,23,11,22,17.60
2019,05,23,11,23,17.60
2019,05,23,11,24,17.70
2019,05,23,11,25,17.70
2019,05,23,11,26,17.90
2019,05,23,11,27,18.00
2019,05,23,11,28,18.20
2019,05,23,11,29,18.40
2019,05,23,11,30,18.60
2019,05,23,11,31,18.70
2019,05,23,11,32,18.70
2019,05,23,11,33,18.70
2019,05,23,11,34,18.70
2019,05,23,11,35,18.70
2019,05,23,11,36,18.70
2019,05,23,11,37,18.60
2019,05,23,11,38,18.60
2019,05,23,11,39,18.50
2019,05,23,11,40,18.40
2019,05,23,11,41,18.40
2019,05,23,11,42,18.30
2019,05,23,11,43,18.20
2019,05,23,11,44,18.20
2019,05,23,11,45,18.20
2019,05,23,11,46,18.20
2019,05,23,11,47,18.10
2019,05,23,11,48,18.10
2019,05,23,11,49,18.10
2019,05,23,11,50,18.00
2019,05,23,11,51,17.90
2019,05,23,11,52,17.80
2019,05,23,11,53,17.70
2019,05,23,11,54,17.70
2019,05,23,11,55,17.70
2019,05,23,11,56,17.70
2019,05,23,11,57,17.70
2019,05,23,11,58,17.70
2019,05,23,11,59,17.70
2019,05,23,12,00,17.70
2019,05,23,12,01,17.70
2019,05,23,12,02,17.70
2019,05,23,12,03,17.70
2019,05,23,12,04,17.80
2019,05,23,12,05,17.90
2019,05,23,12,06,18.00
2019,05,23,12,07,18.00
2019,05,23,12,08,18.10
2019,05,23,12,09,18.00
2019,05,23,12,10,17.90
2019,05,23,12,11,17.80
2019,05,23,12,12,17.80
2019,05,23,12,13,17.70
2019,05,23,12,14,17.70
2019,05,23,12,15,17.60
2019,05,23,12,16,17.60
2019,05,23,12,17,17.60
2019,05,23,12,18,17.60
2019,05,23,12,19,17.60
2019,05,23,12,20,17.60
2019,05,23,12,21,17.60
2019,05,23,12,22,17.60
2019,05,23,12,23,17.70
2019,05,23,12,24,17.70
2019,05,23,12,25,17.80
2019,05,23,12,26,17.80
2019,05,23,12,27,17.70
2019,05,23,12,28,17.70
2019,05,23,12,29,17.60
2019,05,23,12,30,17.50
2019,05,23,12,31,17.40
2019,05,23,12,32,17.40
2019,05,23,12,33,17.30
2019,05,23,12,34,17.30
2019,05,23,12,35,17.30
2019,05,23,12,36,17.30
2019,05,23,12,37,17.30
2019,05,23,12,38,17.30
2019,05,23,12,39,17.30
2019,05,23,12,40,17.30
2019,05,23,12,41,17.30
2019,05,23,12,42,17.40
2019,05,23,12,43,17.40
2019,05,23,12,44,17.50
2019,05,23,12,45,17.60
2019,05,23,12,46,17.70
2019,05,23,12,47,17.90
2019,05,23,12,48,18.00
2019,05,23,12,49,18.10
2019,05,23,12,50,18.20
2019,05,23,12,51,18.30
2019,05,23,12,52,18.30
2019,05,23,12,53,18.30
2019,05,23,12,54,18.30
2019,05,23,12,55,18.30
2019,05,23,12,56,18.40
2019,05,23,12,57,18.40
2019,05,23,12,58,18.40
2019,05,23,12,59,18.50
2019,05,23,13,00,18.60
2019,05,23,13,01,18.70
2019,05,23,13,02,18.70
2019,05,23,13,03,18.70
2019,05,23,13,04,18.70
2019,05,23,13,05,18.70
2019,05,23,13,06,18.70
2019,05,23,13,07,18.70
2019,05,23,13,08,18.70
2019,05,23,13,09,18.90
2019,05,23,13,10,19.10
2019,05,23,13,11,19.30
2019,05,23,13,12,19.60
2019,05,23,13,13,19.90
2019,05,23,13,14,20.10
2019,05,23,13,15,20.30
2019,05,23,13,16,20.30
2019,05,23,13,17,20.40
2019,05,23,13,18,20.40
2019,05,23,13,19,20.40
2019,05,23,13,20,20.50
2019,05,23,13,21,20.60
2019,05,23,13,22,20.80
2019,05,23,13,23,20.90
2019,05,23,13,24,21.00
2019,05,23,13,25,21.10
2019,05,23,13,26,21.20
2019,05,23,13,27,21.30
2019,05,23,13,28,21.40
2019,05,23,13,29,21.50
2019,05,23,13,30,21.60
2019,05,23,13,31,21.70
2019,05,23,13,32,21.70
2019,05,23,13,33,21.70
2019,05,23,13,34,21.60
2019,05,23,13,35,21.50
2019,05,23,13,36,21.40
2019,05,23,13,37,21.40
2019,05,23,13,38,21.40
2019,05,23,13,39,21.50
2019,05,23,13,40,21.60
2019,05,23,13,41,21.60
2019,05,23,13,42,21.60
2019,05,23,13,43,21.60
2019,05,23,13,44,21.60
2019,05,23,13,45,21.70
2019,05,23,13,46,21.80
2019,05,23,13,47,21.70
2019,05,23,13,48,21.70
2019,05,23,13,49,21.60
2019,05,23,13,50,21.60
2019,05,23,13,51,21.60
2019,05,23,13,52,21.50
2019,05,23,13,53,21.40
2019,05,23,13,54,21.30
2019,05,23,13,55,21.10
2019,05,23,13,56,20.90
2019,05,23,13,57,20.60
2019,05,23,13,58,20.40
2019,05,23,13,59,20.20
2019,05,23,14,00,20.00
2019,05,23,14,01,19.90
2019,05,23,14,02,19.70
2019,05,23,14,03,19.60
2019,05,23,14,04,19.50
2019,05,23,14,05,19.40
2019,05,23,14,06,19.40
2019,05,23,14,07,19.40
2019,05,23,14,08,19.30
2019,05,23,14,09,19.30
2019,05,23,14,10,19.30
2019,05,23,14,11,19.40
2019,05,23,14,12,19.50
2019,05,23,14,13,19.60
2019,05,23,14,14,19.70
2019,05,23,14,15,19.80
2019,05,23,14,16,19.90
2019,05,23,14,17,20.00
2019,05,23,14,18,20.10
2019,05,23,14,19,20.20
2019,05,23,14,20,20.40
2019,05,23,14,21,20.40
2019,05,23,14,22,20.40
2019,05,23,14,23,20.50
2019,05,23,14,24,20.50
2019,05,23,14,25,20.60
2019,05,23,14,26,20.70
2019,05,23,14,27,20.80
2019,05,23,14,28,20.80
2019,05,23,14,29,20.90
2019,05,23,14,30,20.90
2019,05,23,14,31,20.90
2019,05,23,14,32,20.90
2019,05,23,14,33,20.90
2019,05,23,14,34,21.00
2019,05,23,14,35,21.10
2019,05,23,14,36,21.20
2019,05,23,14,37,21.30
2019,05,23,14,38,21.30
2019,05,23,14,39,21.40
2019,05,23,14,40,21.50
2019,05,23,14,41,21.60
2019,05,23,14,42,21.60
2019,05,23,14,43,21.70
2019,05,23,14,44,21.80
2019,05,23,14,45,21.80
2019,05,23,14,46,21.70
2019,05,23,14,47,21.60
2019,05,23,14,48,21.60
2019,05,23,14,49,21.60
2019,05,23,14,50,21.60
2019,05,23,14,51,21.70
2019,05,23,14,52,21.80
2019,05,23,14,53,21.70
2019,05,23,14,54,21.70
2019,05,23,14,55,21.80
2019,05,23,14,56,21.70
2019,05,23,14,57,21.70
2019,05,23,14,58,21.60
2019,05,23,14,59,21.50
2019,05,23,15,00,21.40
2019,05,23,15,01,21.40
2019,05,23,15,02,21.30
2019,05,23,15,03,21.40
2019,05,23,15,04,21.40
2019,05,23,15,05,21.50
2019,05,23,15,06,21.50
2019,05,23,15,07,21.60
2019,05,23,15,08,21.60
2019,05,23,15,09,21.80
2019,05,23,15,10,21.90
2019,05,23,15,11,22.00
2019,05,23,15,12,22.00
2019,05,23,15,13,22.10
2019,05,23,15,14,22.10
2019,05,23,15,15,22.10
2019,05,23,15,16,22.20
2019,05,23,15,17,22.30
2019,05,23,15,18,22.40
2019,05,23,15,19,22.50
2019,05,23,15,20,22.50
2019,05,23,15,21,22.50
2019,05,23,15,22,22.40
2019,05,23,15,23,22.20
2019,05,23,15,24,22.00
2019,05,23,15,25,22.00
2019,05,23,15,26,22.00
2019,05,23,15,27,22.00
2019,05,23,15,28,22.00
2019,05,23,15,29,22.00
2019,05,23,15,30,22.00
2019,05,23,15,31,22.00
2019,05,23,15,32,22.00
2019,05,23,15,33,21.90
2019,05,23,15,34,21.90
2019,05,23,15,35,21.80
2019,05,23,15,36,21.80
2019,05,23,15,37,21.70
2019,05,23,15,38,21.70
2019,05,23,15,39,21.60
2019,05,23,15,40,21.60
2019,05,23,15,41,21.50
2019,05,23,15,42,21.50
2019,05,23,15,43,21.40
2019,05,23,15,44,21.40
2019,05,23,15,45,21.30
2019,05,23,15,46,21.30
2019,05,23,15,47,21.30
2019,05,23,15,48,21.20
2019,05,23,15,49,21.20
2019,05,23,15,50,21.20
2019,05,23,15,51,21.30
2019,05,23,15,52,21.30
2019,05,23,15,53,21.40
2019,05,23,15,54,21.40
2019,05,23,15,55,21.40
2019,05,23,15,56,21.50
2019,05,23,15,57,21.50
2019,05,23,15,58,21.50
2019,05,23,15,59,21.40
2019,05,23,16,00,21.30
2019,05,23,16,01,21.20
2019,05,23,16,02,21.10
2019,05,23,16,03,21.10
2019,05,23,16,04,21.00
2019,05,23,16,05,20.90
2019,05,23,16,06,20.80
2019,05,23,16,07,20.70
2019,05,23,16,08,20.60
2019,05,23,16,09,20.50
2019,05,23,16,10,20.50
2019,05,23,16,11,20.30
2019,05,23,16,12,20.30
2019,05,23,16,13,20.20
2019,05,23,16,14,20.10
2019,05,23,16,15,20.00
2019,05,23,16,16,19.90
2019,05,23,16,17,19.90
2019,05,23,16,18,19.80
2019,05,23,16,19,19.80
2019,05,23,16,20,19.80
2019,05,23,16,21,19.80
2019,05,23,16,22,19.80
2019,05,23,16,23,19.80
2019,05,23,16,24,19.80
2019,05,23,16,25,19.80
2019,05,23,16,26,19.80
2019,05,23,16,27,19.70
2019,05,23,16,28,19.80
2019,05,23,16,29,19.80
2019,05,23,16,30,19.80
2019,05,23,16,31,19.90
2019,05,23,16,32,19.90
2019,05,23,16,33,20.00
2019,05,23,16,34,20.00
2019,05,23,16,35,20.10
2019,05,23,16,36,20.10
2019,05,23,16,37,20.10
2019,05,23,16,38,20.20
2019,05,23,16,39,20.20
2019,05,23,16,40,20.20
2019,05,23,16,41,20.20
2019,05,23,16,42,20.20
2019,05,23,16,43,20.20
2019,05,23,16,44,20.20
2019,05,23,16,45,20.30
2019,05,23,16,46,20.30
2019,05,23,16,47,20.30
2019,05,23,16,48,20.30
2019,05,23,16,49,20.40
2019,05,23,16,50,20.40
2019,05,23,16,51,20.40
2019,05,23,16,52,20.50
2019,05,23,16,53,20.50
2019,05,23,16,54,20.50
2019,05,23,16,55,20.50
2019,05,23,16,56,20.50
2019,05,23,16,57,20.60
2019,05,23,16,58,20.60
2019,05,23,16,59,20.70
2019,05,23,17,00,20.60
2019,05,23,17,01,20.60
2019,05,23,17,02,20.50
2019,05,23,17,03,20.40
2019,05,23,17,04,20.30
2019,05,23,17,05,20.30
2019,05,23,17,06,20.20
2019,05,23,17,07,20.20
2019,05,23,17,08,20.20
2019,05,23,17,09,20.20
2019,05,23,17,10,20.20
2019,05,23,17,11,20.20
2019,05,23,17,12,20.20
2019,05,23,17,13,20.20
2019,05,23,17,14,20.20
2019,05,23,17,15,20.20
2019,05,23,17,16,20.20
2019,05,23,17,17,20.10
2019,05,23,17,18,20.00
2019,05,23,17,19,20.00